TimePST,TemperatureF,Dew PointF,Humidity,Sea Level PressureIn,VisibilityMPH,Wind Direction,Wind SpeedMPH,Gust SpeedMPH,PrecipitationIn,Events,Conditions,WindDirDegrees,DateUTC
12:52 AM,55.9,48.9,77,30.06,7.0,Calm,Calm,-,N/A,,Overcast,0,2013-02-05 08:52:00
1:52 AM,55.9,48.9,77,30.05,7.0,Calm,Calm,-,N/A,,Overcast,0,2013-02-05 09:52:00
2:52 AM,55.9,48.0,75,30.04,6.0,Calm,Calm,-,N/A,,Overcast,0,2013-02-05 10:52:00
3:52 AM,55.9,48.0,75,30.03,5.0,SSE,4.6,-,N/A,,Overcast,160,2013-02-05 11:52:00
4:52 AM,55.0,48.9,80,30.01,4.0,Calm,Calm,-,N/A,,Overcast,0,2013-02-05 12:52:00
5:02 AM,55.4,48.2,77,30.02,4.0,Calm,Calm,-,N/A,,Overcast,0,2013-02-05 13:02:00
5:52 AM,55.0,48.9,80,30.02,4.0,Calm,Calm,-,N/A,,Overcast,0,2013-02-05 13:52:00
6:52 AM,55.0,48.9,80,30.05,4.0,Calm,Calm,-,N/A,,Overcast,0,2013-02-05 14:52:00
7:52 AM,55.9,48.9,77,30.08,7.0,Calm,Calm,-,N/A,,Overcast,0,2013-02-05 15:52:00
8:52 AM,57.0,48.9,74,30.10,7.0,NNW,3.5,-,N/A,,Overcast,330,2013-02-05 16:52:00
9:52 AM,57.0,48.0,72,30.12,7.0,West,3.5,-,N/A,,Overcast,260,2013-02-05 17:52:00
10:52 AM,57.0,48.0,72,30.10,7.0,Calm,Calm,-,N/A,,Overcast,0,2013-02-05 18:52:00
11:52 AM,57.9,48.9,72,30.08,7.0,Calm,Calm,-,N/A,,Overcast,0,2013-02-05 19:52:00
12:23 PM,59.0,48.2,67,30.05,7.0,Calm,Calm,-,N/A,,Overcast,0,2013-02-05 20:23:00
12:52 PM,57.9,48.0,70,30.04,7.0,WNW,5.8,-,N/A,,Overcast,290,2013-02-05 20:52:00
1:52 PM,57.9,48.0,70,30.01,8.0,WNW,5.8,-,N/A,,Overcast,300,2013-02-05 21:52:00
2:52 PM,57.0,46.9,69,30.01,7.0,NW,5.8,-,N/A,,Overcast,310,2013-02-05 22:52:00
3:52 PM,57.9,48.0,70,30.01,7.0,North,6.9,-,N/A,,Overcast,10,2013-02-05 23:52:00
4:52 PM,57.0,46.9,69,30.01,8.0,West,4.6,-,N/A,,Overcast,270,2013-02-06 00:52:00
5:52 PM,57.0,46.9,69,30.02,9.0,West,3.5,-,N/A,,Overcast,280,2013-02-06 01:52:00
6:52 PM,57.0,46.9,69,30.04,10.0,NW,3.5,-,N/A,,Overcast,320,2013-02-06 02:52:00
7:52 PM,57.0,46.0,67,30.04,10.0,North,4.6,-,N/A,,Overcast,350,2013-02-06 03:52:00
8:52 PM,57.0,46.0,67,30.04,9.0,NW,3.5,-,N/A,,Overcast,320,2013-02-06 04:52:00
9:52 PM,57.0,46.9,69,30.04,9.0,WNW,5.8,-,N/A,,Mostly Cloudy,300,2013-02-06 05:52:00
10:52 PM,57.0,46.0,67,30.04,10.0,NW,5.8,-,N/A,,Mostly Cloudy,310,2013-02-06 06:52:00
11:52 PM,57.0,46.0,67,30.04,10.0,Calm,Calm,-,N/A,,Mostly Cloudy,0,2013-02-06 07:52:00